Location: A�t Lahcen
(32.8243°N, 5.4246°W)
Time: 02:13:26
(UTC+00:00)

Cosmos 1315 Rocket - Pass Details

Date: 27 January 2021
Orbit: 529 x 567 km, 81.2° (Epoch: 26 February)

Event Time Altitude Azimuth Distance (km) Brightness Sun altitude
Rises 05:39:53 0° 174° (S) 2,659 6.5 -21.0°
Reaches altitude 10° 05:42:05 10° 168° (SSE) 1,771 5.7 -20.6°
Maximum altitude 05:45:48 45° 95° (E) 726 3.9 -19.8°
Drops below altitude 10° 05:49:32 10° 22° (NNE) 1,780 5.5 -19.0°
Sets 05:51:45 0° 16° (NNE) 2,675 6.4 -18.6°
